Location: El Dieciséis
(32.4721°N, 116.6080°W)
Time: 01:34:21
(UTC+00:00)

Cosmos-2242 - Visible Passes

Search period start: 18 September 2024 00:00
Search period end: 28 September 2024 00:00
Orbit: 578 x 601 km, 82.5° (Epoch: 17 September)

Date Brightness Start Highest point End Pass type
(mag) Time Alt. Az. Time Alt. Az. Time Alt. Az.
18 Sep 2.8 12:11:09 10° S 12:15:21 78° W 12:19:36 10° N visible
19 Sep 3.1 12:20:20 17° SSW 12:23:21 48° W 12:27:28 10° N visible
20 Sep 5.7 10:52:58 13° ESE 10:54:30 15° E 10:56:57 10° NE visible
20 Sep 3.7 12:29:35 22° WSW 12:31:24 30° W 12:35:10 10° NNW visible
21 Sep 5.1 11:02:03 23° E 11:02:20 23° E 11:05:43 10° NE visible
21 Sep 4.3 12:38:39 19° W 12:39:28 20° WNW 12:42:36 10° NNW visible
22 Sep 4.6 11:10:58 33° ENE 11:10:58 33° ENE 11:14:07 10° NNE visible
22 Sep 4.8 12:47:33 13° WNW 12:47:33 13° WNW 12:49:32 10° NW visible
23 Sep 4.4 11:19:45 33° NNE 11:19:45 33° NNE 11:22:17 10° NNE visible
24 Sep 4.7 11:28:26 25° N 11:28:26 25° N 11:30:16 10° N visible
25 Sep 5.1 11:37:02 17° N 11:37:02 17° N 11:38:06 10° N visible
26 Sep 5.5 11:45:32 11° NNW 11:45:32 11° NNW 11:45:46 10° NNW visible
